Temp
60 60 60 60 60 60 60 60 60 60 60 61 61 61 61 61 60 71 66 71 73 70 70 79 81 82 84 79 84 86 70 66 70 72 77 88 87 94 97 93 96 98 98 100 103
60 60 60 60 59 59 59 59 60 60 60 61 61 60 60 60 63 69 70 70 70 70 76 79 78 81 76 78 78 76 69 70 79 81 80 85 88 90 90 90 91 94 100 102 102
59 59 59 59 59 59 59 59 59 60 60 60 60 60 60 62 65 71 71 71 70 71 77 80 82 78 74 79 77 75 69 77 80 85 86 84 85 91 86 84 91 91 96 99 100
59 59 59 59 59 59 59 59 59 60 60 60 60 60 61 64 61 75 72 72 71 76 79 80 78 73 71 70 79 70 77 79 81 85 84 83 88 85 86 87 94 96 99 99 97
58 58 58 58 58 58 58 58 58 59 59 59 59 60 64 67 73 80 73 74 78 81 79 78 75 74 69 73 75 73 77 80 82 82 82 84 82 83 84 90 93 95 96 97 96
57 58 58 57 57 58 57 57 57 57 58 59 60 61 64 64 84 86 85 85 84 82 79 79 76 78 73 73 72 77 78 79 82 82 83 79 80 83 86 91 89 90 91 94 95
57 57 57 57 57 57 57 57 57 57 58 60 61 67 67 71 86 88 87 84 84 81 75 80 80 73 74 69 77 75 69 75 77 80 79 82 74 76 86 89 87 88 90 91 93
57 57 57 57 57 57 57 57 57 58 60 61 62 69 66 85 88 86 87 84 87 86 82 82 81 74 70 74 71 67 68 61 74 76 79 77 65 80 85 84 83 86 88 90 91
57 57 56 57 57 57 57 56 57 60 63 63 65 68 68 78 78 84 85 79 81 82 83 84 78 70 71 64 61 64 56 61 66 78 77 74 68 79 84 82 80 83 86 88 90
57 57 56 56 56 56 56 55 62 61 66 74 74 67 74 73 79 81 86 83 76 76 74 74 71 65 66 62 51 58 61 64 63 72 74 72 72 78 81 81 80 82 85 86 87
57 56 56 56 56 56 58 73 66 62 67 68 71 71 74 79 82 79 83 77 77 72 62 70 62 58 63 67 67 64 61 60 66 73 69 68 71 77 82 81 79 81 82 84 86
56 56 56 56 56 56 59 70 71 73 61 74 75 74 77 78 68 75 81 69 67 60 66 63 57 66 69 68 64 61 58 57 63 68 66 65 66 73 79 80 82 80 80 82 85
55 55 56 55 56 59 71 73 80 79 61 69 73 72 74 76 68 70 75 70 64 60 62 57 61 68 64 61 59 59 56 56 56 63 66 62 59 66 74 78 80 82 84 84 83
55 55 55 54 55 77 74 80 82 78 53 60 65 71 74 74 66 77 77 70 64 58 61 59 65 63 61 59 60 52 63 61 59 56 48 63 47 60 67 70 75 77 79 83 85
55 55 55 53 65 73 76 81 80 71 38 64 67 79 75 68 69 71 78 70 59 59 60 56 59 59 57 58 61 55 63 59 59 55 53 54 50 56 65 64 71 76 79 81 85
55 55 54 64 68 78 82 79 73 49 39 59 67 65 65 69 69 71 70 74 71 62 62 61 69 64 59 60 61 62 57 57 56 54 43 51 51 52 59 64 69 76 80 82 84
55 55 54 69 70 82 80 71 50 44 63 58 59 64 62 61 62 64 61 60 57 51 51 59 59 62 59 52 56 59 50 36 39 40 40 53 50 55 63 69 71 73 78 83 86
53 52 61 72 79 78 72 58 41 56 58 64 62 61 57 62 61 61 60 57 64 60 53 45 42 55 59 53 49 53 51 36 27 34 41 54 44 54 64 69 74 77 79 82 83
53 70 67 72 76 75 62 47 50 55 61 57 58 56 57 61 60 60 59 57 60 60 48 46 46 61 62 62 57 52 46 51 36 41 40 47 53 62 66 67 70 73 76 79 80
58 64 70 76 77 68 56 47 56 64 62 60 49 56 50 55 55 56 55 61 58 62 62 53 42 55 59 62 58 54 59 44 45 30 29 42 45 49 58 58 67 71 74 77 80
61 64 71 78 74 61 48 55 60 65 63 55 53 51 53 52 54 52 53 59 60 59 60 56 48 46 53 51 51 52 50 50 39 40 34 34 42 58 53 52 50 57 75 78 79
61 58 74 75 56 57 52 59 56 60 64 60 59 55 52 53 51 50 50 55 62 61 51 55 45 39 46 57 59 52 49 45 37 37 44 41 43 59 50 51 53 50 66 77 78
58 64 74 71 50 51 58 58 61 58 58 57 55 56 56 51 45 51 52 60 61 55 49 48 44 34 41 51 47 43 48 51 51 46 39 35 40 56 48 47 52 48 54 73 76
58 56 65 68 66 56 53 53 54 62 59 58 55 57 52 49 54 49 51 58 60 55 56 52 44 39 33 40 44 37 45 50 49 41 44 44 45 52 46 48 49 51 54 72 75
62 57 58 52 54 54 56 55 52 52 60 60 55 54 51 43 48 47 52 55 57 57 54 49 36 43 46 49 50 50 49 52 50 49 44 49 50 54 52 51 51 55 61 70 74
54 52 55 52 57 54 53 53 52 53 51 49 48 53 54 47 48 46 52 51 48 55 50 49 38 44 41 49 50 48 53 54 55 55 54 55 53 62 64 61 61 64 69 71 73
60 60 51 48 55 54 53 53 52 53 53 55 52 49 47 52 56 59 59 57 55 50 46 39 39 38 34 46 48 41 50 51 52 56 51 46 52 59 60 62 64 68 70 71 74
MSLP
1020.13 1019.69 1019.30 1018.90 1018.53 1018.21 1017.87 1017.45 1016.98 1016.49 1015.97 1015.57 1015.21 1014.87 1014.57 1014.24 1013.68 1012.25 1011.60 1010.94 1010.61 1010.43 1010.00 1009.13 1008.53 1007.70 1007.31 1006.87 1006.00 1005.37 1004.53 1003.09 1002.24 1001.09 999.97 998.87 998.10 997.57 997.38 996.92 996.73 996.55 996.58 996.84 997.11
1020.05 1019.55 1019.09 1018.71 1018.34 1017.93 1017.51 1017.11 1016.68 1016.23 1015.74 1015.34 1014.90 1014.59 1014.40 1014.05 1013.04 1010.98 1010.68 1010.59 1010.35 1010.15 1009.63 1008.25 1007.41 1006.97 1006.49 1005.94 1005.76 1004.92 1003.39 1002.14 1001.76 1000.95 1000.04 999.46 998.49 997.75 997.58 997.23 996.81 996.76 996.43 996.91 997.61
1020.04 1019.52 1019.06 1018.62 1018.17 1017.74 1017.38 1017.00 1016.56 1016.09 1015.56 1015.03 1014.63 1014.24 1014.07 1013.84 1011.64 1009.99 1010.44 1010.11 1009.92 1010.17 1009.49 1008.34 1007.36 1006.67 1005.68 1005.31 1004.79 1004.14 1002.10 1002.12 1001.09 1000.45 1000.10 999.56 999.02 998.61 998.26 997.57 996.81 996.57 996.61 996.88 997.33
1020.18 1019.64 1019.10 1018.58 1018.08 1017.63 1017.20 1016.76 1016.34 1015.87 1015.40 1014.96 1014.46 1014.05 1013.68 1013.22 1009.96 1009.51 1009.90 1009.84 1009.83 1009.71 1008.76 1007.50 1006.69 1006.26 1005.66 1004.74 1004.11 1003.38 1002.56 1002.03 1000.98 1000.42 1000.01 999.30 998.90 998.52 998.72 998.24 997.39 996.90 996.62 996.38 996.99
1020.23 1019.70 1019.08 1018.47 1017.91 1017.34 1016.84 1016.42 1015.99 1015.50 1015.07 1014.75 1014.29 1013.91 1013.05 1010.93 1008.42 1009.00 1009.21 1009.26 1009.01 1008.27 1007.57 1006.71 1006.12 1005.66 1004.84 1004.30 1003.75 1002.35 1001.83 1001.33 1000.84 1000.56 1000.37 1000.06 999.14 998.78 998.53 998.70 998.18 997.59 996.89 996.46 996.32
1020.16 1019.63 1019.05 1018.44 1017.82 1017.21 1016.66 1016.16 1015.63 1015.02 1014.46 1014.26 1014.14 1013.97 1012.76 1009.36 1007.91 1007.94 1008.11 1007.76 1007.43 1007.41 1007.02 1006.62 1006.20 1005.77 1004.98 1004.13 1002.92 1002.46 1001.64 1000.86 1000.27 999.74 999.70 999.66 999.26 999.08 997.95 998.16 998.38 997.98 997.38 996.83 997.02
1020.02 1019.47 1018.88 1018.30 1017.66 1017.02 1016.40 1015.90 1015.35 1014.76 1014.07 1013.82 1013.80 1013.25 1011.07 1008.29 1007.86 1007.62 1007.30 1007.23 1007.19 1007.42 1007.16 1006.74 1006.52 1006.34 1005.36 1004.35 1003.04 1002.96 1001.88 1000.74 999.77 999.59 998.92 999.36 998.60 997.71 998.17 998.21 997.85 997.79 997.54 997.00 996.90
1019.86 1019.31 1018.72 1018.05 1017.40 1016.81 1016.14 1015.49 1014.94 1014.43 1013.69 1013.38 1013.38 1012.51 1009.63 1007.85 1007.82 1007.32 1007.26 1006.79 1006.66 1006.74 1006.60 1006.66 1006.80 1006.45 1005.93 1005.12 1003.78 1003.20 1002.19 1000.44 999.29 999.88 998.55 999.72 997.38 996.90 997.78 997.91 997.63 997.84 997.59 997.08 996.85
1019.66 1019.07 1018.43 1017.71 1017.06 1016.44 1015.78 1015.12 1014.57 1013.86 1013.48 1013.29 1012.89 1011.45 1007.94 1007.97 1007.60 1007.52 1007.32 1006.84 1006.76 1006.60 1006.32 1006.17 1006.40 1006.20 1005.62 1004.77 1003.76 1002.75 1001.58 1000.68 999.63 998.85 998.40 998.72 997.13 996.72 997.23 997.38 997.12 997.15 997.16 997.06 996.78
1019.39 1018.78 1018.18 1017.51 1016.70 1015.95 1015.26 1014.23 1013.63 1013.69 1013.10 1012.28 1011.44 1010.27 1008.00 1007.09 1007.41 1007.56 1006.76 1006.77 1006.75 1006.45 1006.11 1005.38 1005.34 1005.14 1004.58 1004.09 1002.54 1001.90 1000.89 999.83 998.86 998.69 998.46 997.93 996.29 996.12 996.58 996.84 996.38 996.49 996.42 996.30 996.32
1019.14 1018.47 1017.78 1017.11 1016.40 1015.77 1014.89 1012.68 1013.20 1012.80 1011.78 1009.50 1008.54 1007.67 1007.44 1007.34 1007.58 1007.02 1006.53 1006.87 1006.37 1006.09 1005.52 1004.84 1004.63 1003.87 1003.31 1002.86 1002.26 1001.99 1001.40 1000.28 999.52 999.16 998.74 997.86 996.32 995.18 995.04 995.37 995.40 995.79 995.73 995.58 995.50
1019.09 1018.23 1017.37 1016.65 1015.93 1015.33 1015.14 1012.11 1011.51 1011.31 1009.96 1008.61 1007.76 1007.56 1007.53 1007.65 1007.32 1006.49 1006.66 1006.91 1006.57 1005.98 1005.49 1005.00 1004.05 1003.63 1003.40 1003.07 1002.95 1002.86 1002.30 1001.28 1000.72 1000.38 1000.04 998.61 996.89 995.59 995.03 994.43 994.25 994.51 994.70 994.98 994.93
1018.78 1017.88 1016.98 1016.28 1015.59 1014.64 1012.69 1011.50 1011.23 1010.80 1010.04 1007.29 1007.15 1006.97 1006.84 1007.10 1006.76 1006.50 1006.78 1006.86 1006.55 1006.10 1005.49 1005.06 1004.65 1004.34 1004.06 1003.88 1003.58 1003.22 1002.75 1002.12 1001.66 1001.34 1000.88 999.62 998.13 996.46 995.42 994.73 994.40 993.90 993.74 993.73 994.11
1018.57 1017.65 1016.81 1016.04 1015.66 1011.86 1011.05 1011.19 1010.78 1011.00 1009.63 1007.14 1006.92 1006.46 1006.67 1006.58 1006.23 1006.36 1006.61 1007.02 1006.80 1006.36 1006.01 1005.51 1005.17 1004.67 1004.31 1003.95 1004.11 1003.25 1003.05 1002.43 1002.05 1001.62 1000.58 1000.38 998.07 997.20 996.11 994.98 994.65 994.15 993.79 993.33 993.18
1018.21 1017.29 1016.49 1016.33 1014.29 1011.46 1011.48 1011.11 1011.20 1011.11 1008.63 1006.67 1006.13 1006.78 1006.54 1006.47 1006.18 1005.66 1006.29 1006.92 1006.69 1006.40 1006.36 1005.34 1004.83 1004.55 1004.44 1004.40 1004.32 1003.54 1003.26 1002.88 1002.39 1001.71 1001.17 1000.37 999.25 996.81 996.92 994.81 994.30 993.76 993.58 993.24 992.87
1017.87 1017.08 1016.41 1014.67 1013.89 1011.60 1011.20 1011.31 1011.15 1010.28 1007.26 1006.06 1006.03 1005.95 1005.72 1005.32 1005.32 1005.61 1005.79 1005.91 1005.55 1005.51 1005.52 1004.83 1004.54 1004.67 1005.25 1005.60 1005.36 1004.74 1004.24 1003.69 1002.99 1002.18 1000.71 1000.00 999.35 997.10 996.39 995.33 994.35 993.29 992.60 992.23 992.21
1017.32 1016.57 1016.36 1014.46 1012.08 1011.54 1011.59 1010.91 1010.11 1008.08 1006.70 1005.93 1005.95 1006.02 1005.85 1005.30 1005.32 1005.37 1005.68 1005.08 1004.69 1004.48 1004.65 1004.55 1004.45 1005.13 1006.36 1006.34 1005.85 1004.67 1004.39 1004.14 1002.84 1001.82 1000.10 999.81 998.81 996.92 996.11 995.42 994.36 993.40 992.33 991.51 991.18
1016.86 1015.79 1014.52 1013.72 1012.31 1012.09 1011.80 1010.86 1009.36 1007.38 1006.50 1006.76 1006.86 1006.57 1005.46 1004.96 1005.42 1005.51 1004.97 1004.53 1004.31 1004.78 1004.92 1004.93 1004.92 1005.62 1006.35 1006.29 1005.78 1004.94 1004.87 1005.23 1003.98 1002.19 1000.50 999.08 997.65 996.60 996.39 995.63 994.33 993.30 992.13 991.48 990.97
1016.64 1013.93 1013.81 1012.92 1012.71 1012.50 1011.94 1010.17 1008.39 1007.84 1007.99 1007.98 1007.66 1006.18 1005.52 1005.22 1005.40 1005.13 1004.67 1004.62 1005.09 1005.70 1005.84 1005.64 1005.23 1005.33 1005.09 1004.90 1005.44 1004.39 1004.18 1004.25 1004.72 1004.00 1001.67 999.85 998.19 997.06 996.63 995.61 994.74 993.15 992.11 991.05 991.04
1016.61 1014.12 1012.16 1012.41 1012.46 1012.52 1011.72 1010.08 1008.62 1008.17 1008.60 1008.71 1008.19 1007.18 1006.68 1006.43 1006.05 1005.64 1005.39 1005.33 1005.63 1006.05 1006.19 1006.32 1005.67 1005.97 1005.15 1004.70 1005.01 1004.51 1003.96 1003.43 1003.60 1003.61 1002.15 1000.15 998.56 997.34 996.91 997.08 995.05 993.73 992.24 991.56 990.81
1015.52 1012.66 1012.25 1012.23 1012.38 1012.08 1010.93 1009.30 1008.78 1009.16 1009.49 1009.46 1008.82 1008.58 1008.12 1007.68 1007.27 1006.95 1006.53 1006.16 1006.58 1006.65 1007.11 1006.92 1006.93 1006.33 1006.08 1004.65 1003.76 1003.44 1003.16 1003.49 1005.07 1004.61 1002.60 1000.71 998.85 998.98 999.58 999.99 999.19 996.61 993.02 991.53 990.82
1015.22 1012.11 1012.01 1012.25 1012.00 1011.35 1010.60 1009.88 1009.90 1009.40 1009.57 1009.37 1009.38 1009.22 1009.10 1008.82 1008.25 1007.95 1007.41 1007.01 1007.33 1007.30 1007.52 1008.05 1008.34 1007.26 1005.85 1004.52 1004.13 1004.36 1004.11 1004.82 1004.06 1003.16 1002.17 1001.27 998.43 999.92 1001.61 1001.23 1001.02 999.13 994.14 993.03 991.56
1015.50 1012.61 1011.83 1011.85 1011.32 1011.35 1011.00 1010.37 1009.71 1009.61 1009.89 1009.73 1009.53 1009.80 1009.88 1009.53 1008.97 1008.38 1008.11 1007.86 1007.75 1008.48 1008.83 1009.65 1008.72 1007.86 1005.94 1004.32 1005.97 1005.47 1004.14 1003.63 1002.89 1002.57 1001.49 1001.55 999.85 1000.84 1002.17 1003.31 1002.16 1000.77 997.53 994.01 992.07
1016.26 1012.67 1011.44 1011.27 1011.52 1011.73 1011.22 1010.97 1010.02 1009.72 1009.89 1010.20 1010.32 1010.32 1010.14 1009.80 1009.32 1008.55 1007.92 1007.75 1008.08 1008.86 1009.21 1009.55 1009.22 1008.74 1007.42 1006.26 1006.03 1005.91 1004.31 1003.17 1002.34 1001.64 999.75 999.69 1000.08 1000.42 1002.45 1003.11 1002.60 1001.44 999.06 994.16 992.32
1016.15 1014.33 1014.44 1012.93 1012.60 1012.76 1012.07 1011.43 1010.58 1010.05 1010.15 1010.07 1010.09 1010.13 1010.08 1010.07 1009.45 1008.86 1008.06 1007.55 1007.76 1008.16 1008.71 1009.39 1009.17 1008.47 1007.26 1006.03 1004.81 1003.57 1002.65 1000.99 1000.33 999.98 999.04 998.73 998.64 998.76 999.71 1000.73 1001.35 1000.08 997.12 994.15 992.28
1017.88 1017.43 1016.48 1015.24 1013.84 1013.06 1011.91 1011.49 1011.22 1010.95 1011.71 1011.32 1011.24 1010.44 1010.09 1009.89 1009.65 1008.14 1007.52 1007.53 1007.60 1007.98 1008.61 1009.46 1008.94 1008.22 1006.65 1005.69 1004.32 1002.53 1001.25 999.95 998.81 998.71 998.23 997.62 997.42 997.32 996.86 997.66 998.49 997.03 995.33 993.70 992.55
1019.20 1018.93 1018.59 1016.32 1014.12 1012.81 1012.09 1011.98 1012.07 1012.24 1012.12 1011.87 1011.66 1011.34 1010.87 1009.87 1009.29 1008.07 1007.63 1007.38 1007.38 1007.79 1008.59 1010.00 1009.56 1008.74 1006.43 1005.46 1003.71 1002.15 1000.83 1000.06 999.43 998.62 999.07 998.51 998.23 998.18 997.35 996.74 996.04 994.80 994.22 993.18 992.62
Wind_Speed
17 17 17 17 17 17 17 17 18 18 18 18 18 18 17 18 19 19 13 4 5 9 13 14 13 13 14 18 21 20 16 17 23 22 19 18 17 15 14 18 19 19 9 2 11
18 18 18 18 18 18 18 18 18 19 19 19 18 18 16 16 18 18 5 1 6 9 9 13 13 14 14 16 16 20 18 26 23 19 17 18 19 16 14 18 16 18 12 6 6
18 18 19 19 19 19 18 18 18 18 19 19 18 18 16 15 12 9 7 1 7 11 13 15 13 16 19 19 20 22 26 25 27 24 20 21 20 17 18 21 20 16 18 14 8
18 19 19 19 20 19 18 18 18 18 18 19 18 18 16 12 2 8 7 7 10 11 12 14 13 17 19 22 22 27 29 28 29 26 26 26 22 19 17 21 24 23 18 13 14
18 19 20 20 20 20 20 19 19 18 18 18 17 16 11 9 3 11 12 14 14 15 13 9 12 14 20 21 22 29 28 28 27 26 26 27 29 27 18 21 24 25 25 16 17
19 19 20 20 20 20 19 19 19 20 21 18 14 13 8 14 3 1 6 7 6 7 9 10 9 14 18 21 23 21 26 28 28 27 23 27 28 24 27 20 21 22 22 20 12
18 19 21 21 21 21 19 18 18 21 22 17 11 9 12 5 2 5 6 7 2 5 8 10 12 11 13 17 16 21 26 24 28 24 26 23 27 30 25 23 24 21 20 21 18
18 18 21 21 21 21 21 20 20 19 17 13 9 9 9 6 7 6 10 6 6 10 10 8 9 12 13 16 23 20 21 22 22 25 27 21 29 29 25 22 22 24 20 20 20
20 20 21 23 22 22 21 22 22 18 10 7 7 9 7 6 6 8 10 9 10 10 11 9 8 12 13 14 15 16 20 24 25 24 21 24 33 27 22 21 22 21 21 21 21
22 23 23 23 24 22 22 25 12 8 8 9 10 11 10 4 9 10 11 8 9 12 12 14 12 13 13 14 16 17 20 20 25 24 24 26 30 28 25 26 22 22 21 21 24
25 26 24 25 22 20 15 7 6 7 13 14 12 11 10 2 8 7 4 7 11 12 14 10 12 13 17 17 20 20 22 24 24 24 26 22 25 28 22 26 26 23 18 21 24
25 26 25 23 22 19 11 9 9 9 11 17 13 9 5 4 7 7 4 8 14 13 13 12 14 14 14 16 17 19 22 25 24 23 22 24 30 29 22 23 21 24 22 22 19
25 26 26 23 18 12 11 7 8 10 9 6 2 7 7 5 10 12 5 10 14 16 13 12 16 18 16 18 21 20 21 22 24 21 21 25 27 26 27 24 20 20 19 22 22
25 26 25 21 7 5 2 6 8 8 7 9 9 3 5 5 13 1 6 7 12 15 16 13 17 18 18 20 16 20 19 21 21 21 16 17 18 22 22 25 22 21 24 19 15
26 26 23 8 12 7 8 9 8 4 5 5 9 7 4 8 9 8 3 6 13 14 13 14 15 15 17 18 18 23 22 23 23 22 22 23 17 17 21 26 21 21 24 24 16
27 25 21 5 7 6 8 7 5 6 2 6 1 4 9 10 12 5 10 11 17 18 17 20 10 14 9 16 21 19 21 25 23 18 20 24 23 20 20 22 25 21 21 23 22
30 25 14 11 7 9 9 8 7 7 4 4 6 10 13 16 7 2 7 12 11 10 12 15 11 3 6 10 22 15 14 11 17 16 17 23 23 17 24 23 25 27 22 20 15
33 27 7 8 9 8 9 9 5 10 9 14 10 15 19 2 5 8 14 13 8 12 12 13 14 8 3 10 17 16 16 7 14 16 16 19 18 13 23 23 23 26 22 23 9
30 4 4 8 4 5 8 7 4 11 13 11 14 15 8 7 4 14 14 9 7 9 15 14 19 17 19 17 12 17 15 14 12 22 20 18 24 13 22 24 23 25 24 9 11
11 9 6 6 3 5 7 11 14 8 10 11 13 9 12 16 15 13 13 9 8 12 11 15 19 18 24 21 14 25 18 15 7 7 16 17 17 14 12 24 18 23 17 17 16
5 5 6 2 2 6 7 12 12 14 12 6 13 14 14 15 14 15 17 15 14 15 18 16 14 17 19 19 19 14 17 9 6 5 7 13 12 12 18 22 27 30 22 9 3
7 4 6 3 5 4 7 8 5 7 8 10 8 12 10 14 16 16 17 14 14 13 15 11 7 15 21 23 17 10 16 6 8 10 11 13 20 16 21 26 27 29 9 13 7
8 7 6 4 3 7 10 12 13 6 9 13 11 10 12 14 14 8 15 16 13 16 6 6 6 13 14 14 9 9 21 18 14 9 12 13 11 14 21 22 24 24 28 17 8
7 5 1 4 1 7 10 13 12 6 11 6 7 11 12 13 14 13 19 18 9 9 16 7 12 15 15 19 10 11 21 21 17 13 17 13 15 13 8 9 20 26 25 17 8
5 5 6 7 11 14 12 12 14 9 10 9 9 12 11 13 16 18 15 20 16 14 9 3 8 15 19 21 22 23 24 25 22 23 20 18 17 10 10 9 14 22 30 23 12
7 6 8 12 11 13 11 11 12 11 11 14 16 16 15 13 15 24 22 17 15 14 8 5 8 14 21 21 22 24 23 24 25 22 23 22 17 11 8 19 20 23 23 13 11
6 1 4 9 10 11 8 10 13 15 7 12 15 16 19 18 21 22 21 21 22 18 11 6 7 10 21 19 16 15 9 19 20 19 10 13 12 16 17 15 14 16 15 13 10
Wind_Direction
343 341 339 336 334 331 329 326 324 322 321 318 315 312 310 310 304 275 240 33 9 337 323 284 270 261 237 249 254 240 243 245 250 258 272 278 278 285 281 281 262 280 263 17 360
341 339 336 334 333 331 331 329 326 322 318 316 313 311 311 317 300 278 93 129 338 341 302 263 253 240 233 244 230 238 242 240 246 258 265 273 287 283 269 264 242 246 235 149 167
339 337 334 332 330 328 327 325 322 319 316 315 315 312 315 314 277 105 176 304 293 286 269 270 272 277 254 238 231 234 245 243 250 255 250 269 281 280 275 270 264 227 249 168 206
341 337 334 331 327 325 323 321 318 315 313 311 310 309 313 284 353 104 180 229 251 260 268 256 249 241 248 251 238 241 244 249 257 265 278 277 272 250 256 277 290 296 237 239 196
339 336 333 329 326 324 322 319 316 311 307 308 308 313 310 231 46 146 197 219 242 237 252 271 271 261 252 251 247 253 251 249 246 246 261 274 272 275 242 256 273 283 289 281 191
338 335 332 328 324 320 318 314 310 307 305 302 303 306 257 277 29 343 254 263 282 314 316 296 272 282 287 279 265 264 255 258 258 259 249 242 257 265 259 252 248 267 279 283 180
336 334 331 328 323 318 313 309 307 305 299 293 294 282 276 287 278 282 289 315 117 304 301 308 329 305 298 298 266 267 273 277 263 265 256 256 255 245 256 256 256 255 263 272 280
335 331 328 326 322 316 312 309 306 304 295 285 295 279 273 83 328 336 334 315 313 319 279 258 279 287 278 279 294 283 273 265 253 246 254 262 265 247 249 257 242 255 259 265 260
336 332 329 325 320 314 310 304 301 296 280 266 258 222 263 133 233 343 311 315 315 300 308 281 252 269 286 263 266 241 258 260 266 257 256 230 254 255 255 251 254 241 241 250 252
336 334 329 323 318 314 312 291 278 279 236 227 254 265 253 239 1 306 288 306 306 292 287 252 233 256 241 245 253 268 256 251 251 256 262 262 247 243 239 254 247 244 254 240 240
335 332 328 323 313 311 321 304 210 198 234 271 288 270 284 20 296 283 351 301 298 299 272 307 300 273 284 280 279 300 295 284 283 293 298 287 268 261 244 227 233 245 251 244 254
330 327 326 320 311 307 286 288 33 316 302 284 269 259 286 268 282 310 329 306 321 302 302 277 260 265 287 287 276 281 283 280 286 293 291 285 279 279 274 256 249 225 226 243 260
328 325 325 321 316 287 252 34 329 318 286 291 240 224 227 210 279 311 329 310 301 310 300 303 304 308 298 292 286 275 273 278 286 291 281 282 281 278 274 281 276 280 271 225 228
329 327 326 322 290 267 216 351 333 4 275 134 190 183 225 232 262 325 278 314 303 299 303 301 294 283 280 272 273 273 273 277 281 280 271 273 274 262 269 263 258 267 274 267 252
329 328 326 303 318 288 356 340 352 256 258 151 122 108 250 240 287 268 123 262 279 292 288 289 290 293 289 309 334 312 314 304 287 279 277 265 260 269 268 269 254 251 238 261 255
328 329 331 227 226 309 335 330 253 241 266 152 156 239 272 307 291 337 267 263 249 249 258 266 275 275 335 311 303 300 289 283 289 274 261 264 262 264 265 269 268 265 249 235 232
327 323 314 311 334 348 330 279 245 261 134 99 350 325 316 284 347 318 296 283 284 310 297 310 321 343 18 302 321 281 293 287 255 249 262 256 254 260 264 265 266 268 275 266 261
326 316 263 260 316 344 303 271 274 298 3 8 331 313 269 59 313 257 270 279 318 335 315 323 307 357 166 237 264 273 279 269 283 261 274 291 285 279 312 306 272 269 266 257 264
318 261 238 236 316 306 289 259 295 7 353 335 313 287 335 325 264 307 302 328 3 324 303 301 293 295 295 300 299 291 286 235 241 273 262 276 286 253 257 259 268 264 257 236 260
317 288 240 146 239 284 265 264 286 20 353 327 301 289 331 322 315 323 323 340 343 323 333 311 302 301 300 299 276 267 291 294 280 303 279 260 267 271 309 347 264 255 261 249 232
251 247 94 314 293 245 260 293 354 359 328 309 320 315 315 319 325 325 314 325 3 342 331 317 313 308 303 282 282 300 257 260 12 231 260 277 272 65 355 352 334 328 247 219 227
297 301 114 247 255 234 256 350 309 299 318 269 268 309 310 312 312 305 300 312 335 329 315 340 292 287 287 286 311 190 284 252 277 290 288 288 280 20 14 351 338 333 38 293 340
298 294 136 236 310 337 335 321 308 355 323 321 309 322 331 298 298 301 302 299 340 329 324 356 288 308 296 279 42 352 311 306 297 283 261 268 297 47 25 340 330 331 314 294 337
286 317 89 278 199 303 339 314 324 320 287 311 313 290 307 306 308 296 298 306 326 286 299 274 265 258 277 290 284 246 275 275 284 283 283 272 307 290 25 307 328 306 287 279 318
285 15 23 310 336 321 297 299 301 315 324 303 301 308 299 307 305 295 292 300 307 312 301 261 263 275 278 283 277 274 263 275 240 245 265 286 289 290 198 191 255 247 262 290 314
343 351 345 293 311 299 287 306 329 323 340 310 303 308 320 295 273 284 301 305 308 304 285 320 275 293 284 280 278 275 274 272 271 270 268 271 277 304 245 176 223 255 265 283 300
18 21 331 299 287 307 333 331 312 312 308 310 324 310 299 295 290 303 299 290 281 276 295 282 286 291 276 293 289 290 307 308 329 324 352 308 324 315 334 341 317 310 323 312 300